Tracking 29892 objects as of 21-Nov-2024
HD Live streaming from Space Station
objects crossing your sky now

KHAYYAM

Track KHAYYAM now!
10-day predictions
KHAYYAM is classified as:


NORAD ID: 53370
Int'l Code: 2022-096A
Perigee: 493.3 km
Apogee: 496.3 km
Inclination: 97.4 °
Period: 94.4 minutes
Semi major axis: 6865 km
RCS: Unknown
Launch date: August 9, 2022
Source: Iran (IRAN)
Launch site: TYURATAM MISSILE AND SPACE COMPLEX (TTMTR)

Uplink (MHz):
Downlink (MHz):
Beacon (MHz):
Mode:
Call sign:
Status: Unknown

Your satellite tracking list
Your tracking list is empty




NASA's NSSDC Master Catalog

Two Line Element Set (TLE):
1 53370U 22096A   24326.13581047  .00011163  00000-0  43610-3 0  9992
2 53370  97.3790 228.8834 0002243  88.9111 271.2384 15.26043710127252
Source of the keplerian elements: AFSPC